User: anonymous   Login
Location: ??????
(55.8274°N, 37.9338°E)
Time: 05:16:02
(UTC+00:00)
Language:

Cosmos 1538 Rocket - Orbit

View from above orbital plane
View from above orbital plane
View from above satellite
View from above satellite

Ground track
Ground track

The orbit data is extracted from the following two-line orbital elements,

1 14760U 84019B   24173.95591196  .00000390  00000-0  14111-3 0  9995
2 14760  74.0433 101.2722 0026617  50.4134 309.9364 14.36533344111097
Epoch (UTC): 21 June 2024 22:56:30
Eccentricity: 0.0026617
inclination: 74.0433°
perigee height: 751 km
apogee height: 789 km
right ascension of ascending node: 101.2722°
argument of perigee: 50.4134°
revolutions per day: 14.36533344
mean anomaly at epoch: 309.9364°
orbit number at epoch: 11109

The dashed part of the orbit path shows where the satellite is in the earth's shadow,  

DLR